Flag for U.S.A. Weather past 2 weeks in Naples, Florida, U.S.A.

Now
80 °F

Partly sunny.


Feels Like: 83 °F
Forecast: 62 / 79 °F
Wind: 13 mph from West

Location: Naples Municipal

Current Time: Feb 28, 2015 at 3:20:31 PM

Latest Report: Feb 28, 2015 at 2:53 PM


Visibility: 10 mi

Pressure: 30.17 "Hg

Humidity: 69%

Dew point: 69 °F

Location of NaplesLocation

Historic Weather in Naples — Graph

°F

Naples temperature yesterday

Maximum temperature yesterday: 67 °F (at 2:53 PM)
Minimum temperature yesterday: 60 °F (at 8:53 PM)
Average temperature yesterday: 63 °F

Past Weeks' High & Low Weather Summary

 TemperatureHumidityPressure
High84 °F (Feb 28, 12:53 PM)100% (Feb 18, 5:53 AM)30.37 "Hg (Feb 18, 5:53 AM)
Low37 °F (Feb 20, 6:53 AM)20% (Feb 20, 2:53 PM)29.78 "Hg (Feb 26, 2:53 AM)
Average64 °F74%30.11 "Hg
* Reported Feb 13 1:53 PM — Feb 28 1:53 PM, Naples, Weather by CustomWeather, © 2015

Note: Actual official high and low records may vary slightly from our data, if they occured in-between our weather recording intervals... More about our weather records

Advertising

Naples weather history for previous 24 hours

 ConditionsComfort  
Time TempWeatherWind HumidityBarometerVisibility
1:53 PM
Sat, Feb 28
82 °FPartly sunny.9 mph65%30.19 "Hg10 mi
12:53 PM84 °FPartly sunny.6 mph61%30.21 "Hg10 mi
11:53 AM82 °FPartly sunny.10 mph67%30.24 "Hg10 mi
11:00 AM79 °FMostly cloudy.10 mph74%30.26 "Hg9 mi
9:53 AM77 °FScattered clouds.12 mph77%30.25 "Hg9 mi
8:53 AM72 °FPassing clouds.9 mph84%30.24 "Hg8 mi
7:53 AM66 °FFog.9 mph96%30.22 "Hg5 mi
6:53 AM64 °FFog.9 mph97%30.19 "Hg5 mi
5:53 AM63 °FFog.10 mph100%30.17 "Hg5 mi
4:53 AM62 °FFog.12 mph100%30.16 "Hg4 mi
3:53 AM62 °FFog.12 mph100%30.15 "Hg4 mi
2:53 AM61 °FFog.12 mph97%30.14 "Hg3 mi
1:53 AM61 °FFog.12 mph97%30.15 "Hg5 mi
12:53 AM60 °FLow clouds.10 mph96%30.17 "Hg8 mi
11:53 PM
Fri, Feb 27
60 °FLow clouds.12 mph93%30.18 "Hg9 mi
10:53 PM60 °FLow clouds.12 mph90%30.17 "Hg10 mi
9:53 PM60 °FOvercast.15 mph86%30.17 "Hg10 mi
8:53 PM60 °FPassing clouds.12 mph86%30.16 "Hg10 mi
7:53 PM61 °FPassing clouds.10 mph83%30.15 "Hg10 mi
6:53 PM61 °FPassing clouds.16 mph87%30.13 "Hg10 mi
5:53 PM62 °FOvercast.16 mph83%30.12 "Hg10 mi
4:53 PM64 °FOvercast.13 mph78%30.12 "Hg10 mi
3:53 PM66 °FOvercast.9 mph73%30.11 "Hg10 mi
Weather by CustomWeather, © 2015

See weather overviewHow to use our weather pages